SBI266 UNOO-UUDD

Flight info

Callsign SBI266
Flight time 3h 12m
Altitude 36000
Route NANOL6D NANOL B814 OSMIK A231 PEMAG L158 APTAR T787 URAGO URAGO3P
Aircraft A320/M-SDE3FGHIRWY/LB1

Departure

Time 2026-04-24 09:26
Airport Omsk Central Airport (UNOO)

Arrival

Time 2026-04-24 12:38
Airport Domodedovo International Airport (UUDD)
Time Latitude Longitude Altitude Speed Heading
2026-04-24 09:06 54.96147 73.31777 309 ft 0 kts 137°
2026-04-24 09:21 54.96136 73.31803 309 ft 7 kts 119°
2026-04-24 09:22 54.96169 73.31912 308 ft 13 kts 46°
2026-04-24 09:22 54.96227 73.32017 307 ft 11 kts 46°
2026-04-24 09:22 54.96283 73.32104 307 ft 10 kts 38°
2026-04-24 09:22 54.96337 73.32175 306 ft 9 kts 36°
2026-04-24 09:23 54.96387 73.32231 306 ft 9 kts 24°
2026-04-24 09:23 54.96455 73.32268 306 ft 12 kts 39°
2026-04-24 09:23 54.96488 73.32420 305 ft 16 kts 77°
2026-04-24 09:23 54.96515 73.32628 305 ft 20 kts 77°
2026-04-24 09:24 54.96549 73.32880 306 ft 23 kts 77°
2026-04-24 09:24 54.96630 73.33042 303 ft 18 kts 358°
2026-04-24 09:24 54.96754 73.32994 303 ft 19 kts 346°
2026-04-24 09:24 54.96884 73.32943 302 ft 20 kts 347°
2026-04-24 09:25 54.96951 73.32790 303 ft 17 kts 257°
2026-04-24 09:25 54.96918 73.32563 306 ft 35 kts 257°
2026-04-24 09:25 54.96809 73.31746 306 ft 101 kts 257°
2026-04-24 09:25 54.96612 73.30248 322 ft 150 kts 257°
2026-04-24 09:26 54.96383 73.28502 934 ft 147 kts 255°
2026-04-24 09:26 54.96149 73.26757 1683 ft 146 kts 258°
2026-04-24 09:26 54.95908 73.24959 2018 ft 162 kts 257°
2026-04-24 09:26 54.95629 73.22903 2247 ft 187 kts 257°
2026-04-24 09:27 54.95311 73.20562 2593 ft 211 kts 256°
2026-04-24 09:27 54.94957 73.17949 3018 ft 231 kts 257°
2026-04-24 09:27 54.94585 73.15196 3754 ft 238 kts 257°
2026-04-24 09:27 54.94202 73.12375 4585 ft 239 kts 256°
2026-04-24 09:28 54.93817 73.09552 5436 ft 241 kts 256°
2026-04-24 09:28 54.93433 73.06735 6422 ft 237 kts 257°
2026-04-24 09:28 54.93131 73.03938 7302 ft 237 kts 264°
2026-04-24 09:28 54.93086 73.01066 8129 ft 238 kts 269°
2026-04-24 09:29 54.93146 72.98172 8932 ft 241 kts 270°
2026-04-24 09:29 54.93230 72.95241 9712 ft 244 kts 270°
2026-04-24 09:29 54.93309 72.92296 10257 ft 255 kts 270°
2026-04-24 09:29 54.93381 72.89023 10421 ft 279 kts 270°
2026-04-24 09:30 54.93443 72.85560 10815 ft 293 kts 270°
2026-04-24 09:30 54.93512 72.80853 11731 ft 295 kts 269°
2026-04-24 09:30 54.93541 72.78483 12215 ft 296 kts 269°
2026-04-24 09:30 54.93580 72.74854 12962 ft 297 kts 269°
2026-04-24 09:31 54.93617 72.71257 13668 ft 298 kts 268°
2026-04-24 09:31 54.93652 72.67642 14310 ft 300 kts 268°
2026-04-24 09:31 54.93689 72.64020 14910 ft 301 kts 269°
2026-04-24 09:31 54.93722 72.60357 15504 ft 304 kts 269°
2026-04-24 09:32 54.93767 72.56667 16086 ft 307 kts 271°
2026-04-24 09:32 54.94148 72.53031 16641 ft 314 kts 283°
2026-04-24 09:32 54.95026 72.49510 17195 ft 322 kts 292°
2026-04-24 09:32 54.96083 72.46062 17766 ft 324 kts 292°
2026-04-24 09:33 54.97139 72.42586 18306 ft 326 kts 291°
2026-04-24 09:33 54.98201 72.39067 18780 ft 329 kts 291°
2026-04-24 09:33 54.99267 72.35534 19271 ft 331 kts 291°
2026-04-24 09:33 55.00339 72.31983 19752 ft 332 kts 291°
2026-04-24 09:34 55.01415 72.28407 20226 ft 334 kts 291°
2026-04-24 09:34 55.02495 72.24812 20793 ft 334 kts 291°
2026-04-24 09:34 55.03572 72.21213 21262 ft 336 kts 291°
2026-04-24 09:34 55.04659 72.17585 21701 ft 339 kts 291°
2026-04-24 09:35 55.05754 72.13928 22138 ft 341 kts 291°
2026-04-24 09:35 55.06854 72.10250 22578 ft 343 kts 291°
2026-04-24 09:35 55.07957 72.06550 23016 ft 345 kts 291°
2026-04-24 09:35 55.09064 72.02827 23455 ft 347 kts 291°
2026-04-24 09:36 55.10176 71.99081 23822 ft 348 kts 291°
2026-04-24 09:36 55.11292 71.95319 24194 ft 350 kts 291°
2026-04-24 09:36 55.12413 71.91543 24565 ft 351 kts 291°
2026-04-24 09:36 55.13536 71.87756 24929 ft 352 kts 291°
2026-04-24 09:37 55.14661 71.83953 25286 ft 353 kts 291°
2026-04-24 09:37 55.15786 71.80137 25629 ft 354 kts 291°
2026-04-24 09:37 55.16914 71.76309 25979 ft 355 kts 291°
2026-04-24 09:37 55.18046 71.72460 26324 ft 356 kts 291°
2026-04-24 09:38 55.19177 71.68603 26656 ft 357 kts 291°
2026-04-24 09:38 55.20312 71.64727 26979 ft 358 kts 291°
2026-04-24 09:38 55.21447 71.60840 27321 ft 359 kts 291°
2026-04-24 09:38 55.22585 71.56934 27657 ft 361 kts 291°
2026-04-24 09:39 55.23726 71.53011 27984 ft 362 kts 291°
2026-04-24 09:39 55.24871 71.49070 28251 ft 365 kts 291°
2026-04-24 09:39 55.26026 71.45095 28483 ft 367 kts 291°
2026-04-24 09:39 55.27188 71.41092 28761 ft 369 kts 291°
2026-04-24 09:40 55.28356 71.37072 29048 ft 371 kts 291°
2026-04-24 09:40 55.29527 71.33035 29336 ft 372 kts 291°
2026-04-24 09:40 55.30700 71.28981 29616 ft 373 kts 291°
2026-04-24 09:40 55.31859 71.24964 29883 ft 374 kts 290°
2026-04-24 09:41 55.33049 71.20821 30118 ft 375 kts 290°
2026-04-24 09:41 55.34209 71.16768 30309 ft 377 kts 291°
2026-04-24 09:41 55.35261 71.12569 30564 ft 373 kts 284°
2026-04-24 09:41 55.35914 71.08187 30833 ft 369 kts 278°
2026-04-24 09:42 55.36422 71.03760 31140 ft 370 kts 278°
2026-04-24 09:42 55.36933 70.99346 31502 ft 368 kts 278°
2026-04-24 09:42 55.37445 70.94957 31817 ft 366 kts 278°
2026-04-24 09:42 55.37955 70.90562 32080 ft 367 kts 278°
2026-04-24 09:43 55.38470 70.86106 32337 ft 367 kts 278°
2026-04-24 09:43 55.38968 70.81766 32569 ft 368 kts 278°
2026-04-24 09:43 55.39472 70.77347 32777 ft 369 kts 278°
2026-04-24 09:43 55.39976 70.72910 33008 ft 370 kts 278°
2026-04-24 09:44 55.40478 70.68477 33267 ft 370 kts 278°
2026-04-24 09:44 55.40980 70.64036 33507 ft 370 kts 278°
2026-04-24 09:44 55.41480 70.59588 33759 ft 370 kts 278°
2026-04-24 09:44 55.41978 70.55140 33993 ft 371 kts 278°
2026-04-24 09:45 55.42476 70.50686 34174 ft 372 kts 278°
2026-04-24 09:45 55.42974 70.46211 34346 ft 373 kts 278°
2026-04-24 09:45 55.43473 70.41725 34496 ft 374 kts 278°
2026-04-24 09:45 55.43973 70.37220 34643 ft 375 kts 278°
2026-04-24 09:46 55.44470 70.32701 34785 ft 377 kts 278°
2026-04-24 09:46 55.44967 70.28166 34934 ft 378 kts 278°
2026-04-24 09:46 55.45463 70.23609 35069 ft 379 kts 278°
2026-04-24 09:46 55.45959 70.19045 35209 ft 380 kts 278°
2026-04-24 09:47 55.46456 70.14462 35338 ft 381 kts 278°
2026-04-24 09:47 55.46952 70.09864 35476 ft 383 kts 278°
2026-04-24 09:47 55.47448 70.05258 35651 ft 384 kts 278°
2026-04-24 09:47 55.47945 70.00625 35808 ft 384 kts 278°
2026-04-24 09:48 55.48932 69.91363 35918 ft 385 kts 278°
2026-04-24 09:48 55.49915 69.82063 35912 ft 385 kts 278°
2026-04-24 09:49 55.50902 69.72762 35912 ft 385 kts 278°
2026-04-24 09:49 55.51877 69.63463 35914 ft 385 kts 277°
2026-04-24 09:50 55.52835 69.54157 35913 ft 386 kts 277°
2026-04-24 09:50 55.53792 69.44844 35898 ft 386 kts 277°
2026-04-24 09:51 55.54746 69.35531 35897 ft 385 kts 277°
2026-04-24 09:51 55.55678 69.26205 35899 ft 385 kts 277°
2026-04-24 09:52 55.56335 69.16855 35901 ft 382 kts 267°
2026-04-24 09:52 55.56215 69.07470 35899 ft 382 kts 267°
2026-04-24 09:53 55.56108 68.98085 35897 ft 382 kts 267°
2026-04-24 09:53 55.55997 68.88693 35907 ft 383 kts 267°
2026-04-24 09:54 55.55867 68.79291 35884 ft 383 kts 267°
2026-04-24 09:54 55.55728 68.69868 35893 ft 384 kts 267°
2026-04-24 09:55 55.55607 68.62029 35888 ft 384 kts 266°
2026-04-24 09:55 55.55457 68.52584 35888 ft 385 kts 266°
2026-04-24 09:56 55.55303 68.43123 35891 ft 385 kts 266°
2026-04-24 09:56 55.55137 68.33660 35904 ft 385 kts 266°
2026-04-24 09:57 55.54959 68.24212 35904 ft 384 kts 266°
2026-04-24 09:57 55.54781 68.14790 35908 ft 384 kts 266°
2026-04-24 09:58 55.54595 68.05372 35913 ft 383 kts 266°
2026-04-24 09:58 55.54419 67.95956 35913 ft 384 kts 266°
2026-04-24 09:59 55.54291 67.86541 35913 ft 383 kts 266°
2026-04-24 09:59 55.54154 67.77139 35911 ft 383 kts 266°
2026-04-24 10:00 55.53996 67.67748 35913 ft 382 kts 266°
2026-04-24 10:00 55.53829 67.58381 35915 ft 382 kts 266°
2026-04-24 10:01 55.53658 67.49024 35912 ft 381 kts 266°
2026-04-24 10:01 55.53479 67.39670 35912 ft 381 kts 266°
2026-04-24 10:02 55.53297 67.30381 35949 ft 381 kts 265°
2026-04-24 10:02 55.53105 67.21018 35921 ft 382 kts 266°
2026-04-24 10:03 55.52908 67.11640 35909 ft 383 kts 265°
2026-04-24 10:03 55.52694 67.02255 35912 ft 382 kts 265°
2026-04-24 10:04 55.52479 66.92902 35894 ft 382 kts 265°
2026-04-24 10:04 55.52258 66.83528 35899 ft 382 kts 265°
2026-04-24 10:05 55.52030 66.74158 35900 ft 382 kts 265°
2026-04-24 10:05 55.51796 66.64791 35901 ft 382 kts 265°
2026-04-24 10:06 55.51425 66.50758 35897 ft 382 kts 265°
2026-04-24 10:07 55.51165 66.41403 35900 ft 382 kts 265°
2026-04-24 10:07 55.50906 66.32048 35891 ft 382 kts 264°
2026-04-24 10:08 55.50598 66.22698 35893 ft 382 kts 264°
2026-04-24 10:08 55.50257 66.13344 35893 ft 382 kts 264°
2026-04-24 10:09 55.49919 66.03985 35890 ft 382 kts 264°
2026-04-24 10:09 55.49585 65.94630 35896 ft 382 kts 264°
2026-04-24 10:10 55.49239 65.85280 35893 ft 382 kts 264°
2026-04-24 10:10 55.48890 65.75932 35893 ft 382 kts 264°
2026-04-24 10:11 55.48535 65.66581 35906 ft 383 kts 263°
2026-04-24 10:11 55.48165 65.57209 35895 ft 384 kts 263°
2026-04-24 10:12 55.47785 65.47829 35894 ft 384 kts 263°
2026-04-24 10:12 55.47449 65.38431 35891 ft 385 kts 265°
2026-04-24 10:13 55.47458 65.28979 35890 ft 387 kts 268°
2026-04-24 10:13 55.47572 65.19566 35881 ft 387 kts 268°
2026-04-24 10:14 55.47632 65.10026 35877 ft 387 kts 267°
2026-04-24 10:14 55.47639 65.00556 35877 ft 386 kts 266°
2026-04-24 10:15 55.47630 64.91083 35876 ft 387 kts 266°
2026-04-24 10:15 55.47625 64.81601 35876 ft 387 kts 266°
2026-04-24 10:16 55.47615 64.72184 35876 ft 387 kts 266°
2026-04-24 10:16 55.47595 64.62699 35879 ft 387 kts 266°
2026-04-24 10:17 55.47560 64.53135 35877 ft 387 kts 266°
2026-04-24 10:17 55.47522 64.43637 35876 ft 388 kts 266°
2026-04-24 10:18 55.47515 64.34146 35875 ft 387 kts 267°
2026-04-24 10:18 55.47518 64.24647 35888 ft 387 kts 266°
2026-04-24 10:19 55.47503 64.15149 35867 ft 388 kts 266°
2026-04-24 10:19 55.47475 64.05643 35857 ft 388 kts 266°
2026-04-24 10:20 55.47433 63.96108 35860 ft 389 kts 266°
2026-04-24 10:20 55.47386 63.86653 35861 ft 388 kts 266°
2026-04-24 10:21 55.47340 63.77134 35862 ft 388 kts 266°
2026-04-24 10:21 55.47286 63.67622 35857 ft 389 kts 266°
2026-04-24 10:22 55.47222 63.58102 35857 ft 388 kts 266°
2026-04-24 10:22 55.47153 63.48599 35859 ft 388 kts 265°
2026-04-24 10:23 55.47073 63.39107 35858 ft 387 kts 265°
2026-04-24 10:23 55.46984 63.29613 35856 ft 387 kts 265°
2026-04-24 10:24 55.46897 63.20121 35846 ft 387 kts 265°
2026-04-24 10:24 55.46797 63.10634 35845 ft 387 kts 265°
2026-04-24 10:25 55.46661 63.01139 35868 ft 386 kts 261°
2026-04-24 10:25 55.46054 62.91746 35846 ft 387 kts 260°
2026-04-24 10:26 55.45415 62.82320 35837 ft 388 kts 260°
2026-04-24 10:26 55.44768 62.72875 35834 ft 389 kts 260°
2026-04-24 10:27 55.44120 62.63416 35835 ft 389 kts 260°
2026-04-24 10:27 55.43462 62.53957 35829 ft 389 kts 259°
2026-04-24 10:28 55.42789 62.44494 35832 ft 390 kts 259°
2026-04-24 10:28 55.42116 62.35013 35834 ft 390 kts 259°
2026-04-24 10:29 55.41434 62.25538 35826 ft 391 kts 259°
2026-04-24 10:29 55.40740 62.16044 35823 ft 391 kts 259°
2026-04-24 10:30 55.40045 62.06560 35818 ft 391 kts 259°
2026-04-24 10:30 55.39342 61.97081 35821 ft 391 kts 259°
2026-04-24 10:31 55.38632 61.87594 35821 ft 391 kts 259°
2026-04-24 10:31 55.37906 61.78116 35829 ft 391 kts 259°
2026-04-24 10:32 55.37164 61.68643 35832 ft 392 kts 259°
2026-04-24 10:32 55.36425 61.59143 35832 ft 393 kts 259°
2026-04-24 10:33 55.35685 61.49631 35832 ft 393 kts 258°
2026-04-24 10:33 55.34935 61.40125 35831 ft 393 kts 258°
2026-04-24 10:34 55.34168 61.30618 35848 ft 393 kts 258°
2026-04-24 10:34 55.33393 61.21086 35831 ft 395 kts 258°
2026-04-24 10:35 55.32609 61.11536 35822 ft 395 kts 258°
2026-04-24 10:35 55.31826 61.02036 35806 ft 396 kts 258°
2026-04-24 10:36 55.31026 60.92467 35796 ft 396 kts 258°
2026-04-24 10:36 55.30223 60.82903 35794 ft 397 kts 258°
2026-04-24 10:37 55.29408 60.73327 35792 ft 397 kts 258°
2026-04-24 10:37 55.28588 60.63753 35793 ft 397 kts 258°
2026-04-24 10:38 55.27763 60.54185 35794 ft 397 kts 258°
2026-04-24 10:38 55.26925 60.44624 35795 ft 397 kts 258°
2026-04-24 10:39 55.26076 60.35065 35785 ft 397 kts 258°
2026-04-24 10:39 55.25224 60.25512 35787 ft 397 kts 258°
2026-04-24 10:40 55.24357 60.15958 35785 ft 397 kts 258°
2026-04-24 10:40 55.23698 60.07988 35787 ft 398 kts 260°
2026-04-24 10:41 55.23183 59.98314 35796 ft 400 kts 262°
2026-04-24 10:41 55.22736 59.88610 35798 ft 400 kts 261°
2026-04-24 10:42 55.22224 59.78918 35794 ft 399 kts 261°
2026-04-24 10:42 55.21743 59.69229 35813 ft 402 kts 266°
2026-04-24 10:43 55.21982 59.59413 35794 ft 404 kts 269°
2026-04-24 10:43 55.22251 59.49575 35788 ft 405 kts 268°
2026-04-24 10:44 55.22507 59.39723 35793 ft 405 kts 268°
2026-04-24 10:44 55.22756 59.29870 35780 ft 405 kts 268°
2026-04-24 10:45 55.22990 59.19999 35781 ft 406 kts 268°
2026-04-24 10:45 55.23215 59.10129 35787 ft 406 kts 268°
2026-04-24 10:46 55.23449 59.00242 35781 ft 407 kts 268°
2026-04-24 10:46 55.23670 58.90341 35779 ft 406 kts 268°
2026-04-24 10:47 55.23878 58.80441 35781 ft 406 kts 268°
2026-04-24 10:47 55.24077 58.70551 35793 ft 406 kts 268°
2026-04-24 10:48 55.24266 58.60665 35791 ft 406 kts 268°
2026-04-24 10:48 55.24447 58.50789 35786 ft 405 kts 268°
2026-04-24 10:49 55.24617 58.40925 35789 ft 405 kts 268°
2026-04-24 10:49 55.24779 58.31117 35790 ft 405 kts 267°
2026-04-24 10:50 55.24939 58.21238 35796 ft 406 kts 268°
2026-04-24 10:50 55.25104 58.11362 35788 ft 406 kts 268°
2026-04-24 10:51 55.25569 58.01463 35792 ft 409 kts 272°
2026-04-24 10:51 55.26249 57.91571 35797 ft 409 kts 272°
2026-04-24 10:52 55.26908 57.81653 35793 ft 409 kts 271°
2026-04-24 10:52 55.27492 57.71718 35802 ft 410 kts 271°
2026-04-24 10:53 55.28046 57.61769 35788 ft 410 kts 271°
2026-04-24 10:53 55.28600 57.51809 35785 ft 411 kts 271°
2026-04-24 10:54 55.29153 57.41831 35784 ft 411 kts 271°
2026-04-24 10:54 55.29701 57.31839 35780 ft 412 kts 271°
2026-04-24 10:55 55.30243 57.21840 35776 ft 412 kts 271°
2026-04-24 10:55 55.30772 57.11817 35780 ft 412 kts 271°
2026-04-24 10:56 55.31297 57.01788 35778 ft 412 kts 271°
2026-04-24 10:56 55.31821 56.91759 35805 ft 413 kts 271°
2026-04-24 10:57 55.32336 56.81717 35782 ft 413 kts 271°
2026-04-24 10:57 55.32837 56.71650 35767 ft 414 kts 270°
2026-04-24 10:58 55.33323 56.61639 35775 ft 414 kts 271°
2026-04-24 10:58 55.33807 56.51559 35761 ft 414 kts 270°
2026-04-24 10:59 55.34288 56.41477 35745 ft 414 kts 271°
2026-04-24 10:59 55.34762 56.31388 35747 ft 415 kts 270°
2026-04-24 11:00 55.35225 56.21288 35737 ft 415 kts 270°
2026-04-24 11:00 55.35675 56.11196 35740 ft 415 kts 270°
2026-04-24 11:01 55.36117 56.01086 35752 ft 415 kts 270°
2026-04-24 11:01 55.36554 55.90955 35747 ft 416 kts 270°
2026-04-24 11:02 55.36990 55.80805 35737 ft 417 kts 270°
2026-04-24 11:02 55.37414 55.70641 35731 ft 417 kts 270°
2026-04-24 11:03 55.37825 55.60464 35718 ft 418 kts 270°
2026-04-24 11:03 55.38229 55.50275 35729 ft 418 kts 270°
2026-04-24 11:04 55.38628 55.40078 35733 ft 418 kts 270°
2026-04-24 11:04 55.39018 55.29880 35725 ft 418 kts 270°
2026-04-24 11:05 55.39359 55.19676 35764 ft 418 kts 268°
2026-04-24 11:05 55.39526 55.09457 35738 ft 418 kts 267°
2026-04-24 11:06 55.39641 54.99219 35722 ft 419 kts 268°
2026-04-24 11:06 55.39782 54.88967 35719 ft 420 kts 268°
2026-04-24 11:07 55.40018 54.73562 35716 ft 420 kts 268°
2026-04-24 11:07 55.40161 54.63291 35707 ft 420 kts 267°
2026-04-24 11:08 55.40283 54.53027 35713 ft 419 kts 267°
2026-04-24 11:08 55.40397 54.42758 35706 ft 420 kts 267°
2026-04-24 11:09 55.40509 54.32475 35705 ft 421 kts 267°
2026-04-24 11:09 55.40612 54.22170 35721 ft 421 kts 267°
2026-04-24 11:10 55.40704 54.11860 35712 ft 422 kts 267°
2026-04-24 11:10 55.40794 54.01526 35711 ft 423 kts 267°
2026-04-24 11:11 55.40879 53.91247 35704 ft 423 kts 267°
2026-04-24 11:11 55.40952 53.80834 35702 ft 423 kts 267°
2026-04-24 11:12 55.41013 53.70488 35698 ft 423 kts 267°
2026-04-24 11:12 55.41067 53.60144 35698 ft 422 kts 267°
2026-04-24 11:13 55.41110 53.49818 35692 ft 422 kts 266°
2026-04-24 11:13 55.41138 53.39499 35685 ft 422 kts 266°
2026-04-24 11:14 55.41165 53.29176 35692 ft 422 kts 266°
2026-04-24 11:14 55.41187 53.18837 35681 ft 423 kts 266°
2026-04-24 11:15 55.41201 53.08485 35665 ft 423 kts 266°
2026-04-24 11:15 55.41208 52.98191 35662 ft 424 kts 266°
2026-04-24 11:16 55.41201 52.87823 35658 ft 424 kts 266°
2026-04-24 11:16 55.41184 52.77441 35651 ft 424 kts 266°
2026-04-24 11:17 55.41164 52.67054 35652 ft 425 kts 266°
2026-04-24 11:17 55.41134 52.56661 35653 ft 425 kts 266°
2026-04-24 11:18 55.41095 52.46270 35665 ft 425 kts 266°
2026-04-24 11:18 55.41041 52.35855 35669 ft 426 kts 266°
2026-04-24 11:19 55.40974 52.25434 35646 ft 426 kts 265°
2026-04-24 11:19 55.40906 52.14991 35644 ft 427 kts 266°
2026-04-24 11:20 55.40831 52.04551 35636 ft 427 kts 265°
2026-04-24 11:20 55.40740 51.94092 35637 ft 427 kts 265°
2026-04-24 11:21 55.40648 51.83634 35638 ft 427 kts 265°
2026-04-24 11:21 55.40546 51.73168 35641 ft 428 kts 265°
2026-04-24 11:22 55.40430 51.62693 35638 ft 428 kts 265°
2026-04-24 11:22 55.40307 51.52208 35662 ft 429 kts 265°
2026-04-24 11:23 55.40172 51.41718 35639 ft 429 kts 265°
2026-04-24 11:23 55.40032 51.31213 35629 ft 430 kts 265°
2026-04-24 11:24 55.39883 51.20707 35623 ft 430 kts 265°
2026-04-24 11:24 55.39723 51.10196 35622 ft 430 kts 265°
2026-04-24 11:25 55.39649 50.99650 35629 ft 431 kts 266°
2026-04-24 11:25 55.39629 50.89093 35612 ft 432 kts 266°
2026-04-24 11:26 55.39597 50.80324 35609 ft 431 kts 266°
2026-04-24 11:26 55.39527 50.69771 35608 ft 431 kts 265°
2026-04-24 11:27 55.39438 50.59223 35618 ft 432 kts 265°
2026-04-24 11:27 55.39338 50.48658 35605 ft 432 kts 265°
2026-04-24 11:28 55.39236 50.38085 35617 ft 432 kts 265°
2026-04-24 11:28 55.39124 50.27504 35591 ft 433 kts 265°
2026-04-24 11:29 55.39008 50.16914 35594 ft 433 kts 265°
2026-04-24 11:29 55.38875 50.06308 35583 ft 434 kts 265°
2026-04-24 11:30 55.38817 49.95689 35587 ft 437 kts 271°
2026-04-24 11:30 55.39363 49.85041 35583 ft 438 kts 271°
2026-04-24 11:31 55.39897 49.74379 35577 ft 437 kts 271°
2026-04-24 11:31 55.40417 49.63722 35593 ft 437 kts 271°
2026-04-24 11:32 55.40925 49.53064 35573 ft 438 kts 271°
2026-04-24 11:32 55.41422 49.42388 35569 ft 437 kts 271°
2026-04-24 11:33 55.41916 49.31709 35563 ft 438 kts 271°
2026-04-24 11:33 55.42399 49.21040 35553 ft 437 kts 271°
2026-04-24 11:34 55.42874 49.10384 35547 ft 437 kts 271°
2026-04-24 11:34 55.43339 48.99717 35562 ft 437 kts 271°
2026-04-24 11:35 55.43795 48.89043 35546 ft 438 kts 270°
2026-04-24 11:35 55.44240 48.78352 35541 ft 438 kts 270°
2026-04-24 11:36 55.44676 48.67651 35524 ft 439 kts 270°
2026-04-24 11:36 55.45106 48.56922 35525 ft 439 kts 270°
2026-04-24 11:37 55.45526 48.46187 35526 ft 439 kts 270°
2026-04-24 11:37 55.45935 48.35438 35522 ft 439 kts 270°
2026-04-24 11:38 55.46339 48.24694 35517 ft 439 kts 270°
2026-04-24 11:38 55.46729 48.13947 35519 ft 440 kts 270°
2026-04-24 11:39 55.47111 48.03179 35517 ft 440 kts 270°
2026-04-24 11:39 55.47494 47.92394 35511 ft 441 kts 270°
2026-04-24 11:40 55.47861 47.81590 35505 ft 442 kts 270°
2026-04-24 11:40 55.48213 47.70847 35500 ft 442 kts 270°
2026-04-24 11:41 55.48565 47.60027 35498 ft 442 kts 270°
2026-04-24 11:41 55.48899 47.49210 35491 ft 442 kts 270°
2026-04-24 11:42 55.49216 47.38385 35495 ft 442 kts 270°
2026-04-24 11:42 55.49530 47.27552 35487 ft 442 kts 270°
2026-04-24 11:43 55.49839 47.16727 35487 ft 442 kts 270°
2026-04-24 11:43 55.50145 47.05881 35475 ft 443 kts 270°
2026-04-24 11:44 55.50441 46.95018 35475 ft 444 kts 269°
2026-04-24 11:44 55.50729 46.84142 35468 ft 444 kts 269°
2026-04-24 11:45 55.51004 46.73270 35473 ft 444 kts 269°
2026-04-24 11:45 55.51263 46.62397 35479 ft 444 kts 269°
2026-04-24 11:46 55.51513 46.51529 35460 ft 443 kts 269°
2026-04-24 11:46 55.51776 46.40644 35459 ft 444 kts 270°
2026-04-24 11:47 55.52191 46.29756 35460 ft 445 kts 271°
2026-04-24 11:47 55.52667 46.18855 35453 ft 446 kts 271°
2026-04-24 11:48 55.53103 46.07935 35457 ft 446 kts 271°
2026-04-24 11:48 55.53496 45.97013 35457 ft 445 kts 270°
2026-04-24 11:49 55.53874 45.86095 35457 ft 445 kts 271°
2026-04-24 11:49 55.54258 45.75180 35452 ft 445 kts 271°
2026-04-24 11:50 55.54629 45.64271 35440 ft 445 kts 270°
2026-04-24 11:50 55.54991 45.53358 35441 ft 446 kts 271°
2026-04-24 11:51 55.55341 45.42423 35438 ft 446 kts 270°
2026-04-24 11:51 55.55675 45.31482 35435 ft 446 kts 270°
2026-04-24 11:52 55.56004 45.20539 35442 ft 446 kts 271°
2026-04-24 11:52 55.56330 45.09589 35435 ft 446 kts 270°
2026-04-24 11:53 55.56641 44.98719 35428 ft 446 kts 270°
2026-04-24 11:53 55.56933 44.87788 35421 ft 446 kts 270°
2026-04-24 11:54 55.57232 44.76837 35415 ft 446 kts 270°
2026-04-24 11:54 55.57524 44.65891 35415 ft 446 kts 270°
2026-04-24 11:55 55.57799 44.54956 35407 ft 446 kts 270°
2026-04-24 11:55 55.58061 44.44008 35410 ft 446 kts 270°
2026-04-24 11:56 55.58318 44.33050 35407 ft 446 kts 270°
2026-04-24 11:56 55.58565 44.22095 35402 ft 446 kts 270°
2026-04-24 11:57 55.58802 44.11143 35401 ft 446 kts 270°
2026-04-24 11:57 55.59023 44.00196 35400 ft 446 kts 270°
2026-04-24 11:58 55.59445 43.78492 35402 ft 446 kts 270°
2026-04-24 11:59 55.59551 43.67519 35407 ft 446 kts 269°
2026-04-24 11:59 55.59555 43.59715 35405 ft 447 kts 269°
2026-04-24 12:00 55.59547 43.45701 35406 ft 447 kts 269°
2026-04-24 12:00 55.59555 43.34718 35407 ft 447 kts 269°
2026-04-24 12:01 55.59561 43.23726 35412 ft 447 kts 269°
2026-04-24 12:01 55.59559 43.12743 35410 ft 447 kts 269°
2026-04-24 12:02 55.59540 43.01761 35402 ft 447 kts 269°
2026-04-24 12:02 55.59509 42.90772 35423 ft 447 kts 269°
2026-04-24 12:03 55.59473 42.79780 35424 ft 447 kts 269°
2026-04-24 12:03 55.59429 42.68796 35428 ft 447 kts 269°
2026-04-24 12:04 55.59379 42.57817 35425 ft 446 kts 269°
2026-04-24 12:04 55.59308 42.46847 35431 ft 446 kts 268°
2026-04-24 12:05 55.59236 42.35945 35428 ft 446 kts 269°
2026-04-24 12:05 55.59148 42.24980 35440 ft 446 kts 269°
2026-04-24 12:06 55.59054 42.14003 35436 ft 446 kts 269°
2026-04-24 12:06 55.58952 42.03024 35443 ft 447 kts 269°
2026-04-24 12:07 55.58835 41.92006 35312 ft 452 kts 269°
2026-04-24 12:07 55.58770 41.86454 35072 ft 453 kts 269°
2026-04-24 12:07 55.58705 41.80893 34836 ft 450 kts 268°
2026-04-24 12:08 55.58637 41.75387 34377 ft 447 kts 268°
2026-04-24 12:08 55.58566 41.69907 33814 ft 446 kts 268°
2026-04-24 12:08 55.58494 41.64438 33209 ft 445 kts 268°
2026-04-24 12:08 55.58421 41.59002 32654 ft 440 kts 268°
2026-04-24 12:09 55.58346 41.53617 32121 ft 436 kts 267°
2026-04-24 12:09 55.58272 41.48292 31600 ft 432 kts 268°
2026-04-24 12:09 55.58198 41.43004 31079 ft 428 kts 268°
2026-04-24 12:09 55.58123 41.37773 30596 ft 425 kts 268°
2026-04-24 12:10 55.58043 41.32579 30094 ft 421 kts 268°
2026-04-24 12:10 55.57959 41.27428 29612 ft 417 kts 267°
2026-04-24 12:10 55.57872 41.22324 29060 ft 413 kts 267°
2026-04-24 12:11 55.57692 41.12324 28147 ft 401 kts 265°
2026-04-24 12:11 55.57603 41.07437 27725 ft 395 kts 265°
2026-04-24 12:11 55.57516 41.02618 27295 ft 390 kts 265°
2026-04-24 12:11 55.57427 40.97858 26889 ft 384 kts 265°
2026-04-24 12:12 55.57337 40.93169 26486 ft 379 kts 265°
2026-04-24 12:12 55.57245 40.88555 26087 ft 373 kts 265°
2026-04-24 12:12 55.57154 40.84008 25697 ft 368 kts 265°
2026-04-24 12:12 55.57065 40.79521 25318 ft 363 kts 265°
2026-04-24 12:13 55.56973 40.75088 24919 ft 359 kts 265°
2026-04-24 12:13 55.56882 40.70706 24517 ft 355 kts 264°
2026-04-24 12:13 55.56786 40.66368 24125 ft 352 kts 264°
2026-04-24 12:13 55.56669 40.62072 23768 ft 346 kts 259°
2026-04-24 12:14 55.56145 40.58068 23692 ft 327 kts 249°
2026-04-24 12:14 55.55507 40.54213 23629 ft 328 kts 249°
2026-04-24 12:14 55.54864 40.50346 23557 ft 329 kts 249°
2026-04-24 12:14 55.54218 40.46475 23490 ft 329 kts 249°
2026-04-24 12:15 55.53572 40.42614 23417 ft 328 kts 249°
2026-04-24 12:15 55.52924 40.38758 23343 ft 327 kts 249°
2026-04-24 12:15 55.52273 40.34910 23279 ft 327 kts 249°
2026-04-24 12:15 55.51622 40.31070 23206 ft 327 kts 249°
2026-04-24 12:16 55.50969 40.27233 23143 ft 326 kts 249°
2026-04-24 12:16 55.50317 40.23402 23066 ft 325 kts 249°
2026-04-24 12:16 55.49668 40.19585 22986 ft 325 kts 249°
2026-04-24 12:16 55.49018 40.15768 22910 ft 324 kts 249°
2026-04-24 12:17 55.48369 40.11959 22825 ft 324 kts 248°
2026-04-24 12:17 55.47719 40.08161 22742 ft 324 kts 249°
2026-04-24 12:17 55.47071 40.04375 22666 ft 323 kts 249°
2026-04-24 12:17 55.46416 40.00577 22583 ft 323 kts 249°
2026-04-24 12:18 55.45763 39.96793 22501 ft 323 kts 249°
2026-04-24 12:18 55.45110 39.93012 22423 ft 323 kts 249°
2026-04-24 12:18 55.44455 39.89237 22328 ft 323 kts 249°
2026-04-24 12:18 55.43798 39.85461 22269 ft 322 kts 249°
2026-04-24 12:19 55.43142 39.81690 22186 ft 322 kts 249°
2026-04-24 12:19 55.42488 39.77935 22062 ft 322 kts 249°
2026-04-24 12:19 55.42052 39.75436 21826 ft 321 kts 249°
2026-04-24 12:19 55.41398 39.71694 21426 ft 319 kts 249°
2026-04-24 12:20 55.40748 39.67965 21031 ft 318 kts 249°
2026-04-24 12:20 55.40099 39.64255 20637 ft 316 kts 249°
2026-04-24 12:20 55.39450 39.60567 20256 ft 315 kts 249°
2026-04-24 12:20 55.38799 39.56891 19852 ft 314 kts 249°
2026-04-24 12:21 55.38152 39.53228 19466 ft 314 kts 250°
2026-04-24 12:21 55.37505 39.49563 19069 ft 314 kts 250°
2026-04-24 12:21 55.36857 39.45904 18683 ft 313 kts 250°
2026-04-24 12:21 55.36206 39.42247 18294 ft 314 kts 251°
2026-04-24 12:22 55.35551 39.38584 17905 ft 314 kts 251°
2026-04-24 12:22 55.34898 39.34924 17486 ft 314 kts 251°
2026-04-24 12:22 55.34246 39.31270 17096 ft 313 kts 251°
2026-04-24 12:22 55.33591 39.27625 16709 ft 312 kts 252°
2026-04-24 12:23 55.32940 39.23999 16333 ft 311 kts 252°
2026-04-24 12:23 55.32288 39.20376 15962 ft 310 kts 252°
2026-04-24 12:23 55.31640 39.16772 15588 ft 310 kts 252°
2026-04-24 12:23 55.30991 39.13176 15216 ft 309 kts 253°
2026-04-24 12:24 55.30340 39.09572 14844 ft 310 kts 253°
2026-04-24 12:24 55.29686 39.05974 14473 ft 309 kts 253°
2026-04-24 12:24 55.29032 39.02375 14102 ft 310 kts 253°
2026-04-24 12:24 55.28377 38.98772 13719 ft 310 kts 254°
2026-04-24 12:25 55.27720 38.95167 13352 ft 310 kts 253°
2026-04-24 12:25 55.27065 38.91563 12948 ft 310 kts 253°
2026-04-24 12:25 55.26412 38.87981 12563 ft 310 kts 255°
2026-04-24 12:25 55.25754 38.84396 12326 ft 304 kts 254°
2026-04-24 12:26 55.25115 38.80935 12206 ft 294 kts 253°
2026-04-24 12:26 55.24489 38.77530 11874 ft 293 kts 254°
2026-04-24 12:26 55.23864 38.74137 11495 ft 292 kts 255°
2026-04-24 12:26 55.23239 38.70755 11138 ft 292 kts 254°
2026-04-24 12:27 55.22612 38.67382 10753 ft 291 kts 255°
2026-04-24 12:27 55.21986 38.64019 10376 ft 290 kts 256°
2026-04-24 12:27 55.21358 38.60659 9996 ft 290 kts 255°
2026-04-24 12:27 55.20730 38.57304 9598 ft 290 kts 255°
2026-04-24 12:28 55.20105 38.53962 9198 ft 288 kts 255°
2026-04-24 12:28 55.19481 38.50625 8790 ft 288 kts 255°
2026-04-24 12:28 55.18858 38.47300 8397 ft 287 kts 255°
2026-04-24 12:28 55.18236 38.43988 7979 ft 287 kts 256°
2026-04-24 12:29 55.17616 38.40686 7641 ft 283 kts 256°
2026-04-24 12:29 55.17003 38.37425 7290 ft 280 kts 256°
2026-04-24 12:29 55.16395 38.34175 6889 ft 279 kts 256°
2026-04-24 12:29 55.15790 38.30946 6454 ft 280 kts 256°
2026-04-24 12:30 55.15188 38.27762 6167 ft 275 kts 256°
2026-04-24 12:30 55.14588 38.24596 5782 ft 273 kts 256°
2026-04-24 12:30 55.13999 38.21480 5541 ft 265 kts 256°
2026-04-24 12:30 55.13444 38.18492 5402 ft 251 kts 261°
2026-04-24 12:31 55.13416 38.15610 5251 ft 230 kts 289°
2026-04-24 12:31 55.14108 38.13202 5004 ft 219 kts 314°
2026-04-24 12:31 55.15295 38.11660 4781 ft 212 kts 338°
2026-04-24 12:31 55.16712 38.11058 4606 ft 211 kts 349°
2026-04-24 12:32 55.18155 38.10603 4436 ft 211 kts 349°
2026-04-24 12:32 55.19597 38.10144 4300 ft 207 kts 349°
2026-04-24 12:32 55.20992 38.09699 4214 ft 204 kts 349°
2026-04-24 12:32 55.22379 38.09251 4133 ft 199 kts 349°
2026-04-24 12:33 55.23704 38.08811 4025 ft 189 kts 345°
2026-04-24 12:33 55.24852 38.07872 3905 ft 180 kts 328°
2026-04-24 12:33 55.25865 38.06663 3674 ft 170 kts 327°
2026-04-24 12:33 55.26804 38.05537 3548 ft 153 kts 328°
2026-04-24 12:34 55.27642 38.04539 3449 ft 145 kts 328°
2026-04-24 12:34 55.28471 38.03550 3276 ft 144 kts 328°
2026-04-24 12:34 55.29295 38.02566 3057 ft 144 kts 329°
2026-04-24 12:34 55.30125 38.01578 2870 ft 145 kts 329°
2026-04-24 12:35 55.30962 38.00576 2659 ft 146 kts 329°
2026-04-24 12:35 55.31798 37.99574 2462 ft 144 kts 328°
2026-04-24 12:35 55.32594 37.98620 2267 ft 133 kts 329°
2026-04-24 12:35 55.33347 37.97721 2078 ft 130 kts 328°
2026-04-24 12:36 55.34090 37.96836 1899 ft 128 kts 328°
2026-04-24 12:36 55.34820 37.95962 1720 ft 127 kts 328°
2026-04-24 12:36 55.35546 37.95092 1548 ft 127 kts 328°
2026-04-24 12:36 55.36273 37.94221 1366 ft 127 kts 327°
2026-04-24 12:37 55.36997 37.93353 1185 ft 126 kts 327°
2026-04-24 12:37 55.37727 37.92479 1011 ft 128 kts 328°
2026-04-24 12:37 55.38469 37.91588 837 ft 129 kts 328°
2026-04-24 12:37 55.39203 37.90706 666 ft 129 kts 327°
2026-04-24 12:38 55.39934 37.89822 558 ft 120 kts 327°
2026-04-24 12:38 55.40451 37.89214 569 ft 48 kts 325°
2026-04-24 12:38 55.40604 37.89025 571 ft 24 kts 326°
2026-04-24 12:39 55.41042 37.88822 576 ft 18 kts 89°
2026-04-24 12:39 55.40954 37.88961 577 ft 17 kts 147°
2026-04-24 12:39 55.40859 37.89077 579 ft 17 kts 144°
2026-04-24 12:40 55.40789 37.89230 574 ft 16 kts 107°
2026-04-24 12:40 55.40805 37.89425 571 ft 17 kts 61°
2026-04-24 12:40 55.40886 37.89596 570 ft 19 kts 51°
2026-04-24 12:40 55.40966 37.89797 575 ft 21 kts 55°
2026-04-24 12:41 55.41035 37.89975 569 ft 13 kts 56°
2026-04-24 12:41 55.41105 37.90069 569 ft 13 kts 14°
2026-04-24 12:41 55.41153 37.90090 570 ft 0 kts 14°